This is the latest recevied weather packets stored in our database for station/object N5SRF. If no packets are shown the sender has not sent any weather packets the latest 10 day(s).
| Time | Temp. | Humidity | Pressure | Rain* | Wind** | Luminosity | Snow |
|---|---|---|---|---|---|---|---|
| 1777473756 | 25.56° C | 91% | 1016.9 hPa | 0 mm | - | 173 W/m² | - |
| 1777473453 | 25.56° C | 94% | 1016.6 hPa | 0 mm | - | 191 W/m² | - |
| 1777473149 | 25.56° C | 95% | 1016.9 hPa | 0 mm | - | 200 W/m² | - |
| 1777472846 | 25° C | 94% | 1017 hPa | 0 mm | - | 121 W/m² | - |
| 1777472541 | 25° C | 95% | 1016.9 hPa | 0 mm | - | 89 W/m² | - |
| 1777472239 | 25° C | 95% | 1017.1 hPa | 0 mm | - | 168 W/m² | - |
| 1777471935 | 25° C | 96% | 1017 hPa | 0 mm | - | 158 W/m² | - |
| 1777471632 | 25° C | 96% | 1017 hPa | 0 mm | - | 96 W/m² | - |
| 1777471328 | 24.44° C | 97% | 1017.5 hPa | 0 mm | - | 95 W/m² | - |
| 1777471025 | 24.44° C | 97% | 1017.2 hPa | 0 mm | - | 81 W/m² | - |
| 1777470721 | 24.44° C | 97% | 1017.2 hPa | 0 mm | - | 92 W/m² | - |
| 1777470418 | 24.44° C | 98% | 1017 hPa | 0 mm | - | 101 W/m² | - |
| 1777470114 | 24.44° C | 99% | 1016.7 hPa | 0 mm | - | 158 W/m² | - |
| 1777469810 | 23.89° C | 99% | 1017 hPa | 0 mm | - | 100 W/m² | - |
| 1777469506 | 23.89° C | 99% | 1016.9 hPa | 0 mm | - | 41 W/m² | - |
| 1777469201 | 23.89° C | 99% | 1016.7 hPa | 0 mm | - | 94 W/m² | - |
| 1777468895 | 23.89° C | 99% | 1016.5 hPa | 0 mm | - | 116 W/m² | - |
| 1777468592 | 23.89° C | 99% | 1016.7 hPa | 0 mm | - | 116 W/m² | - |
| 1777468289 | 23.33° C | 99% | 1016.8 hPa | 0 mm | - | 102 W/m² | - |
| 1777467985 | 23.33° C | 99% | 1016.7 hPa | 0 mm | - | 82 W/m² | - |
| 1777467681 | 23.33° C | 99% | 1016.5 hPa | 0 mm | - | 81 W/m² | - |
| 1777467376 | 23.33° C | 99% | 1016.4 hPa | 0 mm | - | 77 W/m² | - |
| 1777467072 | 23.33° C | 99% | 1016.3 hPa | 0 mm | - | 70 W/m² | - |
| 1777466770 | 23.33° C | 99% | 1016.5 hPa | 0 mm | - | 53 W/m² | - |
| 1777466468 | 23.33° C | 99% | 1016.5 hPa | 0 mm | - | 36 W/m² | - |
* Rain latest hour (hover to see other rain measurements)
** Current wind speed in m/s (hover to see current wind gust speed)